www.pogodaiklimat.ru

Погода и климат >> Архив погоды >> Россия >> Приморский край >> Посьет


АРХИВ ПОГОДЫ в Посьете

Время (UTC), дата Ветер
(напр.,м/с)
 
Видим.   Явления Облачность Т
(С)
Тd
(С)
f
(%)
Тe
(С)
Тes
(С)
Комфортность P
(гПа)
Po
(гПа)
Тmin
(С)
Tmax
(С)
R
(мм)
R24
(мм)
S
(см)
21 15.09 З 4 20 км 4/3 600 м
[Sc Ci sp]
+12.5 +11.6 94 +10 +10 1012.5 1007.8 +12.6
00 16.09 З 3 20 км ясно +16.6 +12.8 78 +16 +21 1013.3 1008.7 +12.4
03 16.09 З 4 20 км ясно +22.4 +14.3 60 +26 +34 жарко 1012.4 1007.8
06 16.09 З 5
{11}
20 км 3/3 600 м
[Cu hum]
+24.0 +12.3 48 +26 +28 жарко 1011.1 1006.6
09 16.09 СВ 1
{11}
20 км 1/1 600 м
[Sc diur, vesp]
+20.5 +14.7 69 +24 +24 комфорт 1012.5 1007.9 +24.4
12 16.09 С 3 20 км ясно +19.6 +5.7 40 +20 +20 1014.5 1009.9
15 16.09 З 3 20 км ясно +14.6 +5.6 55 +14 +14 1016.3 1011.6
18 16.09 З 3 20 км ясно +12.3 +7.5 72 +11 +11 1017.8 1013.1
21 16.09 СЗ 3 20 км ясно +10.0 +4.8 70 +8 +8 1018.3 1013.5 +9.8
00 17.09 З 2 20 км ясно +13.2 +6.5 64 +13 +18 1019.0 1014.3 +9.6
03 17.09 ЮЗ 1 20 км 3/0
[Ci]
+17.9 +5.1 43 +19 +32 опасность
простуды
1017.1 1012.5
06 17.09 Ю 3 20 км 3/0
[Ci fib]
+18.8 +9.4 54 +20 +25 1014.9 1010.3
09 17.09 Ю 3 20 км 8/0
[Cs]
+16.6 +10.9 69 +16 +16 1014.0 1009.4 +19.3
12 17.09 ЮЗ 2 20 км 3/0
[Cs]
+15.9 +12.8 82 +16 +16 1013.2 1008.6
15 17.09 СВ 2 20 км 9/0
[Cs]
+15.1 +12.7 86 +15 +15 1011.2 1006.6
18 17.09 З 3 20 км 9/0
[Cs]
+14.5 +12.9 90 +14 +14 1010.6 1006.0
21 17.09 З 6-12
{23}
20 км ясно +12.3 +5.0 61 +10 +10 1015.2 1010.4 +12.3
00 18.09 З 8-16
{17}
20 км 3/0
[Ci sp]
+13.7 +3.7 51 +11 +12 1015.9 1011.2 +12.1
03 18.09 З 7-14
{19}
20 км ясно +15.5 +1.5 39 +14 +17 1016.0 1011.3
06 18.09 З 10-19
{19}
20 км 3/1 600 м
[Cu hum Ci sp]
+15.3 -1.7 31 +13 +14 1016.1 1011.4
09 18.09 З 8-15
{19}
20 км 1/1 600 м
[Cu hum]
+14.7 -1.6 33 +13 +13 1016.7 1012.0 +16.6
12 18.09 З 3
{15}
20 км ясно +12.4 +0.6 44 +11 +11 1018.7 1014.0
15 18.09 ЮЗ 1 20 км ясно +10.7 +4.5 65 +11 +11 1018.9 1014.2
18 18.09 З 2 20 км ясно +10.3 +3.3 62 +9 +9 1017.8 1013.0
21 18.09 СЗ 1 20 км ясно +7.1 +2.1 70 +6 +6 1017.1 1012.3 +7.1
00 19.09 З 4 20 км ясно +13.4 +2.4 47 +12 +15 1016.9 1012.2 +6.7
03 19.09 З 6-11
{13}
20 км ясно +18.5 +2.6 35 +18 +23 1015.7 1011.0
06 19.09 З 6-13
{14}
20 км ясно +21.1 +2.7 30 +21 +24 комфорт 1013.8 1009.2
09 19.09 З 5
{14}
20 км ясно +19.3 +2.9 34 +19 +19 1014.6 1010.0 +21.4
12 19.09 СЗ 2 20 км ясно +16.0 +4.3 46 +16 +16 1016.6 1011.9
15 19.09 СЗ 3 20 км ясно +14.6 +2.7 45 +14 +14 1018.1 1013.4
18 19.09 С 3 20 км ясно +11.4 +2.8 55 +10 +10 1019.0 1014.2
21 19.09 СЗ 2 20 км ясно +9.0 +4.7 74 +7 +7 1020.0 1015.2 +9.1
00 20.09 ЮЗ 1 20 км ясно +13.3 +7.1 66 +14 +19 1020.6 1015.9 +8.9
03 20.09 ЮЗ 1 20 км ясно +17.5 +2.8 37 +19 +32 опасность
простуды
1020.0 1015.3
06 20.09 Ю 4 20 км ясно +17.2 +6.5 49 +17 +21 1019.0 1014.3
09 20.09 Ю 3 20 км ясно +16.1 +9.0 63 +16 +16 1019.2 1014.5 +18.6
12 20.09 Ю 2 20 км ясно +15.5 +10.9 74 +15 +15 1019.6 1015.0
15 20.09 В 2 20 км 8/0
[Cs]
+14.3 +11.5 83 +14 +14 1019.2 1014.5
18 20.09 З 2 20 км 8/0
[Cs]
+14.2 +12.3 88 +14 +14 1019.3 1014.6
21 20.09 З 3 20 км ясно +11.3 +10.4 94 +9 +9 1020.1 1015.3 +11.4
00 21.09 З 3 20 км ясно +16.7 +12.5 76 +16 +20 1021.3 1016.6 +11.3
03 21.09 З 4
{11}
20 км 3/3 600 м
[Cu hum]
+21.4 +12.6 57 +24 +29 комфорт 1021.0 1016.4
06 21.09 З 5
{11}
20 км 3/3 600 м
[Cu hum]
+22.9 +5.5 32 +23 +26 комфорт 1020.2 1015.6
09 21.09 С 3
{11}
20 км 3/1 600 м
[Sc Ci fib]
+20.7 +6.4 39 +22 +22 комфорт 1020.9 1016.2 +23.0
12 21.09 З 2 20 км ясно +15.5 +14.5 94 +15 +15 1023.0 1018.3
15 21.09 В 1 20 км ясно +12.4 +11.1 92 +12 +12 1023.5 1018.7
18 21.09 СЗ 1 20 км ясно +11.5 +8.3 81 +11 +11 1023.7 1018.9
21 21.09 З 1 20 км 1/0
[Ac lent]
+10.6 +7.5 81 +10 +10 1024.7 1019.9 +10.6
00 22.09 З 2 20 км 3/0
[Cs]
+14.7 +10.0 73 +14 +19 1026.1 1021.4 +10.4
03 22.09 ЮЗ 2 20 км 8/0
[Cs]
+18.3 +9.2 55 +19 +29 1024.7 1020.0
06 22.09 ЮЗ 1 20 км 9/0
[Cs]
+18.6 +10.9 61 +20 +26 1022.1 1017.5
09 22.09 ЮВ 1 20 км 10/0
[Ac lent Cs]
+16.1 +10.7 70 +17 +17 1021.8 1017.1 +19.9
12 22.09 СЗ 2 20 км 10/0
[Cs]
+14.4 +11.8 84 +14 +14 1020.9 1016.2
15 22.09 С 3 20 км 10/0
[Cs]
+14.2 +9.2 72 +13 +13 1018.9 1014.2

 

Местоположение метеостанции Посьет (Приморский край, Россия): широта 42.65 долгота 130.80 высота над уровнем моря 39 м.

В архиве по умолчанию представлена погода в Посьете за последнюю неделю. Архивные данные за месяц целиком и за предыдущие месяцы, начиная с января 2011 года, Вы можете получить, выбрав интересующий диапазон дат из раскрывающегося списка и нажав кнопку "Ввод!".


*Определитесь, кто Вы:
робот инопланетянин человек

Внимание! Время в таблицах - всемирное. Для получения местного времени необходимо прибавить поправку, которая равна 10 ч.

Смотрите также архив погоды в соседних городах и на ближайших метеорологических станциях:

Погода в Гамове (Приморский край, Россия) (36 км)
Погода в Сонбонге (КНДР) (49 км)
Погода в Барабаше (Приморский край, Россия) (78 км)
Погода на Мысе Назимова (Приморский край, Россия) (100 км)
Погода в Владивостоке (Приморский край, Россия) (104 км)
Погода в Яньцзи (Гирин, Китай) (109 км)
Погода в Чхонджине (КНДР) (127 км)
Погода в Полтавке (Приморский край, Россия) (159 км)
Погода в Тимирязевском (Приморский край, Россия) (163 км)
Погода в Многоудобном (Приморский край, Россия) (164 км)

Пояснения к столбцам:

Ветер - указаны скорость ветра в м/с - средняя за 10 мин, порывы в срок и между сроками (в фигурных скобках) и направление, откуда дует ветер: С - северный, СВ - северо-восточный, В - восточный, ЮВ - юго-восточный, Ю - южный, ЮЗ - юго-западный, З - западный, СЗ - северо-западный.
Видимость - горизонтальная дальность видимости в метрах или километрах. При видимости от 1 до 10 км при отсутствии осадков обычно наблюдается дымка, при ухудшении видимости до 1 км и менее - туман. В сухую погоду видимость может ухудшаться дымом, пылью или мглою.
Явления - указаны атмосферные явления, наблюдавшиеся в срок или в последний час перед сроком; фигурными скобками обозначены явления, наблюдавшиеся между сроками (за 1-3 часа до срока); квадратными скобками обозначены град или гололедные отложения с указанием их диаметра в мм.
Облачность - указаны через наклонную черту общая и нижняя облачность в баллах и высота нижней границы облаков в метрах; квадратными скобками обозначены формы облаков: Ci - перистые, Cs - перисто-слоистые, Cc - перисто-кучевые, Ac - высококучевые, As - высокослоистые, Sc - слоисто-кучевые, Ns - слоисто-дождевые, Cu - кучевые, Cb - кучево-дождевые. Подробнее классификацию облаков см. в Атласе облаков (PDF).
T - Температура воздуха - температура, измеренная на высоте 2 м над землей.
Td - Температура точки росы - температура, при понижении до которой содержащийся в воздухе водяной пар достигнет насыщения.
f - Относительная влажность воздуха - влажноcть воздуха, измеренная на высоте 2 м над землей.
Te - Эффективная температура - температура, которую ощущает одетый по сезону человек в тени. Характеристика душности погоды. При расчете учитывается влияние влажности воздуха и скорости ветра на теплоощущения человека.
Tes - Эффективная температура на солнце - температура, которую ощущает человек, с поправкой на солнечный нагрев. Характеристика знойности погоды. Зависит от высоты солнца над горизонтом, облачности и скорости ветра. Ночью, в пасмурную погоду, а также при ветре 12 м/с и более поправка равна нулю.
P - Атмосферное давление - приведенное к уровню моря атмосферное давление.
Po - Атмосферное давление - измеренное на уровне метеостанции атмосферное давление.
Tmin - Минимальная температура - минимум температуры воздуха на высоте 2 м над землей.
Tmax - Максимальная температура - максимум температуры воздуха на высоте 2 м над землей.
R - Количество осадков - Количество выпавших осадков за период времени, мм. При наведении курсора мыши на число - период времени, за который выпало указанное количество осадков.
R24 - Количество осадков - Количество выпавших осадков за 24 часа, мм.
S - Снежный покров - Высота снежного покрова, см. При наведении курсора мыши на число - состояние снежного покрова и степень покрытия местности в баллах.